Tracking 28126 objects as of 1-Oct-2023
HD Live streaming from Space Station
objects crossing your sky now

STARLINK-3727

Track STARLINK-3727 now!
10-day predictions
STARLINK-3727 is classified as:


NORAD ID: 52125
Int'l Code: 2022-029AP
Perigee: 545.9 km
Apogee: 547.7 km
Inclination: 53.2 °
Period: 95.4 minutes
Semi major axis: 6917 km
RCS: Unknown
Launch date: March 19, 2022
Source: United States (US)
Launch site: AIR FORCE EASTERN TEST RANGE (AFETR)
Your satellite tracking list
Your tracking list is empty




NASA's NSSDC Master Catalog

Two Line Element Set (TLE):
1 52125U 22029AP  23273.95958569  .00001888  00000-0  13658-3 0  9994
2 52125  53.2157 107.7561 0001276 121.2933 238.8184 15.08861207 86460
Source of the keplerian elements: AFSPC